[[{"header":{"parameterUnit":"m.s-1","parameterCategory":1,"la1":30.2991,"la2":30.254,"lo1":-89.0895,"lo2":-89.0444,"dy":0.0017,"dx":0.0017,"nx":28,"ny":28,"refTime":"2025-11-29T03:00:00:Z","depth":0,"parameterNumber":2,"parameterNumberName":"U-component_of_WINDS"},"data":[0,0,0,0,0,0,0,0,0,0,0,0,0,0,0,0,0,0,0,0,0,0,0,0,0,0,0,0,0,0,0,0,0,0,0,0,0,0,0,0,0,0,0,0,0,0,0,0,0,0,0,0,0,0,0,0,0,0,-1.2476,-1.2476,0,-1.2524,-1.2524,-1.2525,-1.2484,-1.2482,-1.248,-1.2479,-1.2533,-1.2536,-1.2539,0,0,0,0,0,0,0,0,0,0,0,0,0,-1.2354,-1.2356,-1.2476,-1.2476,-1.2477,-1.2523,-1.2524,-1.2525,-1.2484,-1.2482,-1.248,-1.2478,-1.2532,-1.2536,-1.254,0,0,0,0,0,0,0,0,0,0,0,0,0,-1.2405,-1.2357,-1.2476,-1.2462,-1.2461,-1.2523,-1.2524,-1.2525,-1.2485,-1.2482,-1.2479,-1.2477,-1.2531,-1.2536,-1.254,-1.262,0,0,-1.2554,-1.2556,0,0,0,0,0,0,0,0,-1.2402,-1.241,-1.2463,-1.2463,-1.2462,-1.2495,-1.2501,-1.2557,-1.2485,-1.2476,-1.2479,-1.2476,-1.2523,-1.2528,-1.2543,-1.2622,-1.2625,-1.2554,-1.2557,-1.2559,-1.2561,0,0,0,0,0,0,0,-1.2399,-1.2407,-1.2495,-1.2464,-1.2464,-1.2455,-1.246,-1.2512,-1.2514,-1.2477,-1.2474,-1.248,-1.2522,-1.2539,-1.2544,-1.2625,-1.2554,-1.2558,-1.2561,-1.2563,-1.2774,-1.2776,0,0,0,0,0,0,-1.2396,-1.2405,-1.2493,-1.2496,-1.2425,-1.246,-1.2464,-1.2487,-1.2513,-1.2514,-1.2482,-1.2478,-1.2532,-1.2539,-1.2546,-1.2642,-1.2559,-1.2563,-1.2566,-1.2771,-1.2774,-1.2777,0,0,0,0,0,0,-1.2393,-1.2404,-1.2491,-1.245,-1.246,-1.2464,-1.249,-1.249,-1.2506,-1.2517,-1.2517,-1.2498,-1.253,-1.2539,-1.2601,-1.2643,-1.2566,-1.257,-1.2767,-1.2772,-1.2776,-1.2834,0,0,0,0,0,0,-1.239,-1.2403,-1.2433,-1.245,-1.2462,-1.2545,-1.2493,-1.2492,-1.2513,-1.2508,-1.2532,-1.2533,-1.2529,-1.2595,-1.2606,-1.2648,-1.2573,-1.2764,-1.2769,-1.2774,-1.2828,-1.2839,-1.2849,0,0,0,0,0,-1.2386,-1.2448,-1.2434,-1.2445,-1.2499,-1.2547,-1.2554,-1.2547,-1.2516,-1.2547,-1.2554,-1.2533,-1.2636,-1.2602,-1.2614,-1.2658,-1.2761,-1.2768,-1.2774,-1.2824,-1.2837,-1.2849,0,0,0,0,0,0,-1.2437,-1.245,-1.2435,-1.2504,-1.2525,-1.254,-1.2578,-1.2561,-1.2592,-1.2586,-1.2577,-1.2582,-1.2648,-1.2659,-1.262,-1.2737,-1.2694,-1.2703,-1.2728,-1.2741,-1.2751,-1.2748,-1.2577,0,0,0,0,0,-1.2456,-1.2492,-1.2503,-1.2563,-1.2574,-1.2574,-1.2595,-1.2587,-1.2609,-1.2618,-1.2629,-1.2653,-1.269,-1.2716,-1.2751,-1.2829,-1.2835,-1.2865,-1.2875,-1.2884,-1.2893,-1.2936,-1.295,-1.2798,-1.2798,-1.2798,0,0,-1.2496,-1.2508,-1.2532,-1.2574,-1.2588,-1.2629,-1.2582,-1.2626,-1.2657,-1.2625,-1.2685,-1.2694,-1.2719,-1.279,-1.2822,-1.2801,-1.2936,-1.2892,-1.2899,-1.2903,-1.2944,-1.2959,-1.2972,-1.2803,-1.2802,-1.2801,0,0,-1.259,-1.2602,-1.2654,-1.267,-1.2692,-1.2692,-1.2704,-1.2722,-1.2727,-1.2786,-1.2763,-1.28,-1.2864,-1.2884,-1.2902,-1.3003,-1.2986,-1.3015,-1.3071,-1.3113,-1.3125,-1.3136,-1.3174,-1.3187,-1.3023,-1.3024,-1.3024,0,-1.2638,-1.2696,-1.2684,-1.273,-1.2749,-1.272,-1.2774,-1.279,-1.2824,-1.2839,-1.2814,-1.2896,-1.2911,-1.2986,-1.3011,-1.3026,-1.3041,-1.3013,-1.3124,-1.3135,-1.3144,-1.3181,-1.3195,-1.3027,-1.3027,-1.3026,-1.3026,0,-1.2755,-1.2796,-1.2835,-1.2867,-1.2891,-1.294,-1.2937,-1.2963,-1.2953,-1.2955,-1.3017,-1.3033,-1.3072,-1.3089,-1.308,-1.3163,-1.315,-1.3125,-1.3083,-1.3163,-1.3197,-1.321,-1.3032,-1.3031,-1.303,-1.3029,0,0,-1.2885,-1.2907,-1.2923,-1.2937,-1.2959,-1.2991,-1.304,-1.3076,-1.31,-1.3123,-1.3166,-1.3221,-1.3198,-1.3219,-1.3211,-1.3248,-1.333,-1.3219,-1.3219,-1.3241,-1.3425,-1.3445,-1.3461,-1.3317,-1.3319,-1.3321,-1.3424,0,-1.2982,-1.3065,-1.3055,-1.3135,-1.3174,-1.3146,-1.3189,-1.3208,-1.3212,-1.3247,-1.3251,-1.3291,-1.3257,-1.3269,-1.3304,-1.3312,-1.3367,-1.3304,-1.3359,-1.3361,-1.3355,-1.3479,-1.35,-1.3596,-1.3437,-1.3439,-1.344,0,-1.3106,-1.3133,-1.3217,-1.3233,-1.3249,-1.3288,-1.332,-1.3353,-1.3374,-1.3375,-1.3398,-1.3384,-1.3435,-1.3389,-1.3461,-1.3419,-1.344,-1.3447,-1.3451,-1.3457,-1.3407,-1.3491,-1.3626,-1.3642,-1.3461,-1.3459,-1.3458,0,-1.3195,-1.3252,-1.331,-1.3322,-1.3343,-1.3371,-1.3381,-1.34,-1.3422,-1.3451,-1.3466,-1.3501,-1.3521,-1.3549,-1.3546,-1.3512,-1.3619,-1.3573,-1.3623,-1.3623,-1.3649,-1.3647,-1.3791,-1.3658,-1.3658,-1.3658,-1.3658,0,-1.3305,-1.3359,-1.335,-1.3386,-1.3445,-1.3433,-1.3492,-1.3499,-1.3516,-1.3554,-1.3532,-1.3569,-1.3561,-1.3598,-1.3596,-1.3657,-1.3665,-1.3669,-1.3668,-1.3672,-1.3672,-1.3688,-1.3682,-1.3662,-1.3661,-1.366,-1.366,0,-1.3416,-1.3412,-1.3473,-1.3487,-1.3491,-1.3535,-1.3547,-1.3582,-1.3583,-1.3632,-1.3643,-1.3646,-1.3688,-1.3687,-1.3735,-1.3734,-1.3809,-1.3799,-1.3801,-1.38,-1.3851,-1.3847,-1.4012,-1.4034,-1.3885,-1.3886,-1.3887,0,-1.3488,-1.3528,-1.3545,-1.3568,-1.3579,-1.3617,-1.3639,-1.3629,-1.3654,-1.3681,-1.3713,-1.3753,-1.3785,-1.3854,-1.3862,-1.3899,-1.3892,-1.3947,-1.3898,-1.3901,-1.3896,-1.3894,-1.3899,-1.3958,-1.3959,-1.3961,-1.3962,0,-1.3617,-1.3612,-1.3644,-1.3676,-1.3703,-1.3728,-1.3751,-1.3771,-1.3763,-1.3792,-1.3834,-1.3859,-1.3907,-1.3948,-1.3984,-1.3996,-1.3979,-1.3977,-1.3991,-1.3997,-1.3997,-1.4,-1.383,-1.3974,-1.3973,-1.3972,-1.3971,-1.3971,-1.3712,-1.3746,-1.3764,-1.38,-1.3816,-1.3838,-1.3871,-1.3876,-1.391,-1.3948,-1.394,-1.3988,-1.4009,-1.4055,-1.407,-1.4109,-1.409,-1.411,-1.4115,-1.4121,-1.4127,-1.3989,-1.4115,-1.4115,-1.4115,-1.4114,-1.4114,0,-1.3841,-1.3851,-1.3884,-1.3916,-1.3945,-1.3923,-1.3947,-1.3974,-1.4016,-1.4036,-1.4067,-1.4116,-1.4155,-1.4166,-1.4204,-1.4233,-1.4226,-1.4244,-1.4243,-1.4246,-1.4141,-1.4126,-1.4249,-1.4249,-1.4249,-1.4249,-1.4248,-1.4248,-1.3912,-1.397,-1.3968,-1.4034,-1.4043,-1.4089,-1.4104,-1.4125,-1.4141,-1.4196,-1.4228,-1.4233,-1.4251,-1.429,-1.4325,-1.4328,-1.4344,-1.4365,-1.4365,-1.4267,-1.4254,-1.4241,-1.4227,-1.4368,-1.4368,-1.4467,-1.4468,-1.4468]},{"header":{"parameterUnit":"m.s-1","parameterCategory":1,"la1":30.2991,"la2":30.254,"lo1":-89.0895,"lo2":-89.0444,"dy":0.0017,"dx":0.0017,"nx":28,"ny":28,"refTime":"2025-11-29T03:00:00:Z","depth":0,"parameterNumber":3,"parameterNumberName":"V-component_of_WINDS"},"data":[0,0,0,0,0,0,0,0,0,0,0,0,0,0,0,0,0,0,0,0,0,0,0,0,0,0,0,0,0,0,0,0,0,0,0,0,0,0,0,0,0,0,0,0,0,0,0,0,0,0,0,0,0,0,0,0,0,0,-3.4073,-3.4073,0,-3.4055,-3.4055,-3.4055,-3.3999,-3.3997,-3.3996,-3.3995,-3.3978,-3.3978,-3.3979,0,0,0,0,0,0,0,0,0,0,0,0,0,-3.4061,-3.4062,-3.4073,-3.4073,-3.4073,-3.4055,-3.4055,-3.4055,-3.3999,-3.3997,-3.3996,-3.3994,-3.3977,-3.3978,-3.3979,0,0,0,0,0,0,0,0,0,0,0,0,0,-3.4057,-3.4062,-3.4074,-3.4043,-3.404,-3.4055,-3.4055,-3.4055,-3.3999,-3.3997,-3.3996,-3.3994,-3.3977,-3.3978,-3.3979,-3.4023,0,0,-3.3982,-3.3983,0,0,0,0,0,0,0,0,-3.4058,-3.4058,-3.4048,-3.4045,-3.4042,-3.4027,-3.4044,-3.4044,-3.4,-3.4015,-3.3995,-3.3993,-3.3996,-3.3995,-3.3996,-3.4022,-3.4021,-3.3982,-3.3983,-3.3983,-3.3984,0,0,0,0,0,0,0,-3.4058,-3.4058,-3.4066,-3.4048,-3.4044,-3.4031,-3.4028,-3.4044,-3.4016,-3.4013,-3.4009,-3.4008,-3.3994,-3.3995,-3.3995,-3.4021,-3.3982,-3.3983,-3.3984,-3.3984,-3.4082,-3.4084,0,0,0,0,0,0,-3.4062,-3.4059,-3.4067,-3.4066,-3.4045,-3.4032,-3.4029,-3.4034,-3.4016,-3.4011,-3.4009,-3.4005,-3.3994,-3.3994,-3.3994,-3.4044,-3.3983,-3.3984,-3.3985,-3.408,-3.4082,-3.4084,0,0,0,0,0,0,-3.4062,-3.4064,-3.4068,-3.4061,-3.4061,-3.4034,-3.404,-3.4034,-3.4035,-3.4013,-3.4007,-3.4016,-3.3993,-3.3993,-3.4016,-3.4043,-3.3985,-3.3986,-3.4077,-3.408,-3.4083,-3.4145,0,0,0,0,0,0,-3.4062,-3.4064,-3.408,-3.4062,-3.4061,-3.409,-3.4042,-3.4035,-3.4037,-3.4032,-3.4017,-3.4013,-3.3991,-3.4015,-3.4017,-3.4043,-3.3987,-3.4075,-3.4079,-3.4082,-3.414,-3.4149,-3.4157,0,0,0,0,0,-3.4062,-3.4098,-3.4081,-3.4082,-3.4081,-3.4091,-3.4091,-3.4065,-3.404,-3.4056,-3.4041,-3.4013,-3.4039,-3.4017,-3.402,-3.4047,-3.4073,-3.4078,-3.4082,-3.4136,-3.4147,-3.4157,0,0,0,0,0,0,-3.4121,-3.4095,-3.4076,-3.4107,-3.4102,-3.4082,-3.4101,-3.4077,-3.4079,-3.4074,-3.4042,-3.4039,-3.4067,-3.4059,-3.4035,-3.4088,-3.4052,-3.4057,-3.4092,-3.4103,-3.4111,-3.4113,-3.3987,0,0,0,0,0,-3.4137,-3.4148,-3.4125,-3.4155,-3.4153,-3.4128,-3.4131,-3.4112,-3.4105,-3.4102,-3.4089,-3.4084,-3.4091,-3.4096,-3.4101,-3.4138,-3.4135,-3.4158,-3.4166,-3.4173,-3.4179,-3.4198,-3.4208,-3.4099,-3.4099,-3.4099,0,0,-3.4172,-3.4159,-3.4168,-3.4166,-3.416,-3.4172,-3.4126,-3.4141,-3.4149,-3.4104,-3.4126,-3.4116,-3.4108,-3.4138,-3.4151,-3.4133,-3.4208,-3.4179,-3.4185,-3.4186,-3.4204,-3.4214,-3.4223,-3.4102,-3.4101,-3.4101,0,0,-3.4241,-3.4232,-3.4256,-3.425,-3.4241,-3.4223,-3.4229,-3.4213,-3.4204,-3.4225,-3.4192,-3.4201,-3.4214,-3.421,-3.4209,-3.4276,-3.4251,-3.4279,-3.4324,-3.4343,-3.4352,-3.4359,-3.4384,-3.4393,-3.4284,-3.4284,-3.4284,0,-3.4285,-3.4302,-3.4272,-3.4288,-3.4289,-3.4248,-3.4273,-3.4268,-3.4261,-3.4263,-3.4242,-3.4257,-3.4248,-3.4277,-3.4294,-3.4294,-3.4301,-3.4281,-3.4353,-3.436,-3.4367,-3.439,-3.4399,-3.4287,-3.4287,-3.4287,-3.4286,0,-3.4357,-3.4368,-3.4389,-3.4383,-3.4385,-3.4406,-3.438,-3.4386,-3.4366,-3.4351,-3.4373,-3.4361,-3.4363,-3.4369,-3.4349,-3.4395,-3.4384,-3.4359,-3.4322,-3.4381,-3.4403,-3.4411,-3.4292,-3.4291,-3.429,-3.4289,0,0,-3.4463,-3.444,-3.4448,-3.4444,-3.443,-3.4439,-3.4458,-3.4459,-3.4466,-3.4462,-3.4477,-3.4489,-3.4465,-3.4464,-3.4444,-3.4461,-3.4516,-3.4433,-3.4432,-3.445,-3.4566,-3.4586,-3.4597,-3.4498,-3.45,-3.4501,-3.4567,0,-3.4529,-3.456,-3.4533,-3.4569,-3.4579,-3.4541,-3.4557,-3.455,-3.4537,-3.4544,-3.453,-3.4538,-3.4506,-3.4505,-3.452,-3.4506,-3.4539,-3.4501,-3.4513,-3.4514,-3.4517,-3.4608,-3.4629,-3.4692,-3.4575,-3.4577,-3.4578,0,-3.4611,-3.461,-3.4647,-3.463,-3.4634,-3.4649,-3.4648,-3.4655,-3.4647,-3.4636,-3.4636,-3.4611,-3.4628,-3.4592,-3.4616,-3.459,-3.4594,-3.4588,-3.4589,-3.459,-3.455,-3.4613,-3.4712,-3.4722,-3.459,-3.4589,-3.4588,0,-3.4686,-3.4694,-3.4717,-3.4715,-3.4696,-3.4708,-3.4701,-3.4691,-3.4693,-3.4693,-3.4694,-3.4696,-3.4697,-3.47,-3.4676,-3.4651,-3.4704,-3.4665,-3.4696,-3.4697,-3.4709,-3.4709,-3.4812,-3.471,-3.471,-3.471,-3.471,0,-3.4763,-3.4787,-3.475,-3.4765,-3.4791,-3.476,-3.4787,-3.4775,-3.4767,-3.4778,-3.4745,-3.4757,-3.4724,-3.4733,-3.4714,-3.4738,-3.4738,-3.4731,-3.4726,-3.4734,-3.4735,-3.4737,-3.4732,-3.4712,-3.4712,-3.4711,-3.4711,0,-3.4852,-3.4828,-3.485,-3.4831,-3.4826,-3.4846,-3.4829,-3.4842,-3.4826,-3.4841,-3.4843,-3.4819,-3.4827,-3.4803,-3.4808,-3.4796,-3.483,-3.4817,-3.4833,-3.4829,-3.4862,-3.486,-3.497,-3.4983,-3.4872,-3.4873,-3.4874,0,-3.4903,-3.492,-3.4902,-3.4907,-3.4902,-3.4911,-3.4913,-3.4883,-3.4887,-3.4879,-3.4893,-3.4899,-3.4902,-3.4917,-3.49,-3.4903,-3.4891,-3.493,-3.4892,-3.49,-3.4893,-3.4893,-3.4895,-3.4938,-3.4939,-3.494,-3.4941,0,-3.4996,-3.4984,-3.4988,-3.4989,-3.4992,-3.4992,-3.4988,-3.4995,-3.4963,-3.4969,-3.4977,-3.4979,-3.4984,-3.499,-3.499,-3.4983,-3.4958,-3.4953,-3.4961,-3.497,-3.4979,-3.4975,-3.4855,-3.4951,-3.495,-3.4949,-3.4949,-3.4948,-3.5068,-3.5082,-3.5072,-3.5078,-3.5072,-3.507,-3.5081,-3.5066,-3.5072,-3.5073,-3.5055,-3.5067,-3.5059,-3.5056,-3.5051,-3.506,-3.5043,-3.5054,-3.5056,-3.506,-3.5066,-3.4976,-3.506,-3.506,-3.506,-3.5059,-3.5059,0,-3.5161,-3.5152,-3.5158,-3.5154,-3.5159,-3.5134,-3.5129,-3.5135,-3.5146,-3.5139,-3.5143,-3.5152,-3.5158,-3.5141,-3.5144,-3.5155,-3.5144,-3.5157,-3.5157,-3.5156,-3.5081,-3.5074,-3.5167,-3.5167,-3.5166,-3.5166,-3.5166,-3.5166,-3.521,-3.5232,-3.5218,-3.5238,-3.5228,-3.5239,-3.5239,-3.5237,-3.5232,-3.5244,-3.5248,-3.5237,-3.5226,-3.5229,-3.5233,-3.5228,-3.5231,-3.5249,-3.5241,-3.5171,-3.5161,-3.5151,-3.5145,-3.525,-3.525,-3.5315,-3.5315,-3.5316]}]]